Location: Kalberh�ni
(46.4610°N, 7.2453°E)
Time: 06:12:43
(UTC+00:00)

Cosmos 1802 Rocket - Pass Details

Date: 29 October 2021
Orbit: 955 x 1010 km, 82.9° (Epoch: 05 December)

Event Time Altitude Azimuth Distance (km) Brightness Sun altitude
Rises 03:41:58 0° 5° (N) 3,689 7.2 -25.7°
Reaches altitude 10° 03:46:22 10° 34° (NE) 2,750 6.8 -24.9°
Maximum altitude 03:48:54 12° 58° (ENE) 2,575 7.0 -24.5°
Drops below altitude 10° 03:51:27 10° 82° (E) 2,759 7.5 -24.0°
Sets 03:55:51 0° 111° (ESE) 3,715 8.1 -23.3°
